ソーホー彗星

C/1998 J1 ( SOHO )

English version
Home page
Updated on January 1, 2005

---------------------------------------------------------------------

・ プロフィール

発見日 1998年5月3日
発見光度 0等以上
発見者 SOHO-LASCO coronagraph C3

・ 写真集

・ 軌道要素

   The following improved orbital elements by Kenji Muraoka, are 
  from 196 observations  1998 May 20  to  Aug.  5, perturbations 
  by 9 Planets, Moon and 5 minor planets were taken into account.
   The mean residual is +/- 0.70 arc seconds.

      Epoch  =  1998 May  27.0  TT       JDT = 2450960.5
          T  =  1998 May   8.61890       +/- 0.00016 (m.e.) TT
       Peri. =  110.55820                +/- 0.00095
       Node  =  351.64727                +/- 0.00173   (2000.0)
       Incl. =   62.93174                +/- 0.00019
          q  =    0.1532152              +/- 0.0000005 AU
          e  =    1.0001781              +/- 0.0000134
        1/a  =   -0.0011623              +/- 0.0000875 1/AU
  orig. 1/a  =   -0.000434  1/AU 
  fut.  1/a  =   -0.001014  1/AU 

・ 星図

・ 光度変化

        m1 = 5.6 + 5 logΔ + 10.0 log r  [  , 0]  (              〜1998年 5月 8日)
        m1 = 6.2 + 5 logΔ +  6.0 log r  [ 0,50]  (1998年 5月 8日〜1998年 6月27日)
        m1 = 4.0 + 5 logΔ + 20.0 log r  [50,  ]  (1998年 6月27日〜              )

---------------------------------------------------------------------

軌道要素は村岡健治氏の計算によるものです。
星図は StellaNavigator Ver.2.0 for Windows (アストロアーツ 編著 / アスキー出版局刊) で作成したものです。
光度グラフはComet for Windowsで作成したものです。

---------------------------------------------------------------------

Copyright(C) Seiichi Yoshida (comet@aerith.net). All rights reserved.